FW2516 Weather Reports


Display with metric or nautical units.
time (UTC)temp
F
wind
direction
speed
MPH
gust
MPH
rain 1hr
in
rain 24hr
in
rain mn
in
humidity
%
barometer
mb
20260508173010 71 101 2.0 8.0 0.00 0.00 0.00 33 1016.5
20260508171510 70 42 2.0 5.0 0.00 0.00 0.00 32 1016.7
20260508170012 71 229 2.0 8.0 0.00 0.01 0.00 29 1016.7
20260508163015 71 175 2.0 6.0 0.00 0.01 0.00 33 1017.0
20260508161509 70 90 2.0 5.0 0.00 0.01 0.00 31 1017.3
20260508160009 69 256 2.0 8.0 0.00 0.02 0.00 30 1017.6
20260508153006 67 132 3.0 7.0 0.00 0.02 0.00 33 1017.9
20260508151601 67 136 1.0 5.0 0.00 0.02 0.00 34 1017.8
20260508151501 66 134 1.0 5.0 0.00 0.02 0.00 34 1018.0
20260508150101 66 184 1.0 5.0 0.00 0.03 0.00 35 1017.9
20260508143117 65 360 2.0 6.0 0.00 0.03 0.00 40 1018.1
20260508141600 63 281 2.0 6.0 0.00 0.03 0.00 41 1018.2
20260508140112 61 9 1.0 4.0 0.00 0.05 0.00 43 1018.3
20260508133050 62 138 1.0 5.0 0.00 0.05 0.00 36 1018.2
20260508131546 59 82 0.0 3.0 0.00 0.05 0.00 20 1018.2
20260508130041 56 88 0.0 3.0 0.00 0.06 0.00 32 1017.9
20260508123045 51 61 0.0 5.0 0.00 0.06 0.00 44 1017.7
20260508121539 49 40 0.0 0.0 0.00 0.06 0.00 46 1017.7
20260508120036 48 20 0.0 0.0 0.00 0.08 0.00 46 1017.5
20260508113035 45 26 0.0 0.0 0.00 0.08 0.00 45 1016.9
20260508111536 45 20 0.0 0.0 0.00 0.08 0.00 44 1016.6
20260508110034 44 15 0.0 0.0 0.00 0.11 0.00 43 1016.3
20260508103038 44 15 0.0 0.0 0.00 0.11 0.00 42 1015.9
20260508101524 45 17 0.0 0.0 0.00 0.11 0.00 42 1015.5
20260508100026 45 24 0.0 0.0 0.00 0.13 0.00 42 1015.5
20260508093019 46 26 0.0 0.0 0.00 0.13 0.00 41 1015.2
20260508091517 46 19 0.0 2.0 0.00 0.13 0.00 41 1015.3
20260508090017 46 21 1.0 2.0 0.00 0.16 0.00 41 1015.0
20260508083013 47 260 0.0 2.0 0.00 0.16 0.00 38 1015.0
20260508081511 47 257 0.0 1.0 0.00 0.16 0.00 38 1014.7
20260508080010 47 257 1.0 2.0 0.00 0.20 0.00 36 1014.7
20260508073009 48 256 0.0 0.0 0.00 0.20 0.00 35 1014.5
20260508071509 48 256 0.0 2.0 0.00 0.20 0.00 32 1014.1
20260508070005 48 254 0.0 2.0 0.00 0.24 0.00 28 1014.2
20260508063002 49 254 0.0 2.0 0.00 0.24 0.00 25 1014.2
20260508061606 50 256 0.0 2.0 0.00 0.24 0.00 25 1014.0
20260508060125 50 258 0.0 2.0 0.00 0.30 0.00 25 1014.1
20260508053056 50 257 0.0 2.0 0.00 0.30 0.00 36 1014.1
20260508051557 50 259 0.0 2.0 0.00 0.30 0.00 39 1014.1
20260508050051 51 260 0.0 0.0 0.00 0.35 0.00 46 1014.1
20260508043049 52 259 0.0 0.0 0.00 0.35 0.00 58 1013.6
20260508041544 53 259 0.0 2.0 0.00 0.35 0.00 60 1013.4
20260508040038 54 259 0.0 2.0 0.00 0.41 0.35 61 1013.6
20260508033035 55 257 0.0 0.0 0.00 0.41 0.35 61 1013.5
20260508031533 57 257 0.0 1.0 0.00 0.41 0.35 61 1013.2
20260508030128 57 257 0.0 0.0 0.00 0.49 0.35 59 1013.2
20260508023024 59 257 0.0 1.0 0.00 0.49 0.35 54 1013.0
20260508021521 60 256 0.0 0.0 0.00 0.49 0.35 54 1012.8
20260508020019 61 256 0.0 0.0 0.00 0.57 0.35 51 1012.4
20260508013017 62 336 0.0 4.0 0.00 0.57 0.35 43 1012.0
20260508011516 62 258 0.0 6.0 0.00 0.57 0.35 44 1011.7
20260508010026 63 260 3.0 9.0 0.00 0.68 0.35 42 1011.4
20260508003016 64 294 0.0 6.0 0.00 0.68 0.35 47 1010.9
20260508001515 65 268 0.0 6.0 0.00 0.68 0.35 48 1010.3
20260508000014 66 292 2.0 10.0 0.00 0.76 0.35 47 1010.2
20260507233013 69 309 7.0 16.0 0.00 0.76 0.35 45 1009.7
20260507231513 69 44 2.0 10.0 0.00 0.76 0.35 53 1009.7
20260507230115 68 45 2.0 11.0 0.00 0.78 0.35 58 1009.2
20260507223010 75 64 2.0 10.0 0.00 0.78 0.35 52 1008.2
20260507221511 75 302 6.0 15.0 0.00 0.78 0.35 41 1007.8
20260507220007 77 274 6.0 15.0 0.00 0.78 0.35 41 1007.4
20260507213007 75 273 5.0 14.0 0.00 0.78 0.35 46 1006.9
20260507211507 76 240 4.0 8.0 0.00 0.78 0.35 52 1006.8
20260507210007 79 211 3.0 16.0 0.00 0.78 0.35 49 1006.6
20260507203000 81 243 3.0 12.0 0.00 0.78 0.35 47 1006.3
20260507201601 81 215 5.0 12.0 0.00 0.78 0.35 45 1006.4
20260507200100 80 203 4.0 11.0 0.00 0.78 0.35 48 1006.4
20260507194559 79 207 4.0 8.0 0.00 0.78 0.35 49 1006.6
20260507193057 76 210 0.0 5.0 0.00 0.78 0.35 53 1007.1
20260507190055 81 209 2.0 6.0 0.00 0.79 0.35 47 1007.3
20260507184552 80 202 2.0 8.0 0.00 0.79 0.35 45 1007.7
20260507183051 79 245 5.0 9.0 0.00 0.79 0.35 44 1007.7
20260507183042 79 243 4.0 11.0 0.00 0.79 0.35 44 1007.7
20260507181648 78 203 5.0 9.0 0.00 0.79 0.35 43 1007.8
20260507180056 79 186 1.0 7.0 0.00 0.81 0.35 43 1008.0